User: anonymous   Login
Location: Lecco
(45.8566°N, 9.3977°E)
Time: 03:10:05
(UTC+01:00)
Language:

ISS - Orbit

View from above orbital plane
View from above orbital plane
View from above satellite
View from above satellite

Ground track
Ground track

The orbit data is extracted from the following two-line orbital elements,

1 25544U 98067A   18344.99169895  .00016717  00000-0  10270-3 0  9047
2 25544  51.6384 217.6297 0005142 135.9748 224.1815 15.54068828 26000
Epoch (UTC): 10 December 2018 23:48:02
Eccentricity: 0.0005142
inclination: 51.6384°
perigee height: 401 km
apogee height: 408 km
right ascension of ascending node: 217.6297°
argument of perigee: 135.9748°
revolutions per day: 15.54068828
mean anomaly at epoch: 224.1815°
orbit number at epoch: 2600

The dashed part of the orbit path shows where the satellite is in the earth's shadow,  

DLR